星链-5859 (STARLINK-5859 )

导读 | 星芒AI

STARLINK-5859 是 SpaceX Starlink 项目中的一颗低轨通信卫星,属于第 5 批 Starlink 卫星群的一部分。该卫星于 2021 年 10 月 31 日由猎鹰 9 号火箭从卡纳维拉尔角发射升空。它运行在约 550 公里的高度,旨在为全球用户提供高速互联网服务。Starlink 卫星采用先进的相控阵天线和激光通信技术,以提高连接速度和稳定性。该项目致力于构建一个覆盖全球的卫星互联网网络,特别是在偏远和网络基础设施薄弱的地区。

基本信息
目录编号:
55915
目录名称:
STARLINK-5859
国际标识:
2023-037B
轨道中心:
EARTH
卫星名称:
星链-5859
卫星全名:
星链-5859 (STARLINK-5859 )
卫星状态:
在轨 (已飞行1010 天)
发射日期:
2023-03-17 UTC
国别 :
美国 (US)
星等 :
--
轨道信息
数据来源 国际轨道数据
星历时间: 2025-12-21T03:56:31+0800
20小时前
查看轨道信息
半长轴: 6950.154km
偏心率: 0.0003375
轨道倾角: 69.999°
近地点辐角 268.176°
升交点赤经 143.338°
平近点角 91.901°
近地点: 569.671km
远地点: 574.363km
周期: 96.106分钟
每日圈数: 14.983426
详细信息
固有亮度:
5
最大亮度:
2.5
卫星平台:
Starlink v1.5
覆盖范围:
全球
运营商:
太空探索技术公司
运营商所在国:
美国
制造商(研发单位):
太空探索技术公司
制造商所在国:
美国
使用方式:
暂无
卫星简介
星链(Starlink)计划是由太空探索技术公司(SpaceX)提出的一个巨型低轨卫星互联网星座项目,计划在2019年至2024年间在太空搭建由约1.2万颗卫星组成的“星链”网络,其中1584颗将部署在地球上空550千米处的近地轨道,并从2020年开始工作。该卫星仍在工作。
2D轨道图
3D轨道图
轨道高度分析图
轨道倾角分析图
轨道综合分析图
查看轨道综合分析图